#timestamp,LO_Frequency,Hit,StdDev 
1582884015.0,286047001.1,N
1582884015.9,286047001.1,N
1582884035.7,286047000.5,N
1582884055.6,286047000.3,N
1582884075.4,286047001.2,N
1582884095.3,286047001.2,N
1582884115.1,286047002.7,N
1582884116.0,286047002.7,N
1582884135.8,286047000.0,N
1582884155.7,286047002.3,N
1582884175.5,286047002.0,N
1582884195.4,286047001.9,N
1582884215.2,286047003.8,N
1582884235.0,286047003.2,N
1582884235.9,286047003.2,N
1582884255.8,286047002.1,N
1582884275.6,286047001.7,N
1582884295.4,286047002.2,N
1582884315.3,286047001.7,N
1582884335.1,286047001.4,N
1582884355.9,286047006.0,Y
1582884375.7,286047004.4,P
1582884395.5,286047002.9,N
1582884415.4,286047005.7,P
1582884435.2,286047004.3,N
1582884455.1,286047001.3,N
1582884456.0,286047001.3,N
1582884475.8,286047001.9,N
1582884495.7,286047002.7,N
1582884515.5,286047000.1,N
1582884535.3,286046998.6,N
1582884555.2,286047002.8,N
1582884575.9,286047002.3,N
1582884595.7,286047001.5,N
1582884615.6,286047002.2,N
1582884635.4,286047001.7,N
1582884655.3,286047003.5,N
1582884675.1,286047003.9,N
1582884676.0,286047003.9,N
1582884695.8,286047004.4,N
1582884715.7,286047000.1,N
1582884735.5,286047000.6,N
1582884755.3,286047001.0,N
1582884775.2,286046999.9,N
1582884795.0,286047001.5,N
1582884795.9,286047001.5,N
1582884815.8,286046999.8,N
1582884835.6,286047001.6,N
1582884855.4,286047005.5,Y
1582884875.3,286047001.5,P
1582884895.1,286047000.1,N
1582884915.9,286047000.2,N
1582884935.7,286047000.8,N
1582884955.5,286046999.1,N
1582884975.4,286046996.9,Y
1582884995.2,286046998.9,P
1582885015.1,286047001.0,N
1582885016.0,286047001.0,N
1582885035.8,286047000.5,N
1582885055.6,286047000.4,N
1582885075.5,286047000.0,N
1582885095.3,286046998.6,N
1582885115.2,286046999.0,N
1582885135.9,286046999.0,N
1582885155.7,286046998.1,N
1582885175.6,286047000.9,N
1582885195.4,286046997.7,N
1582885215.2,286046999.6,N
1582885235.1,286046999.9,N
1582885236.0,286046999.9,N
1582885255.8,286046998.9,N
1582885275.7,286046998.4,N
1582885295.5,286046998.7,N
1582885315.3,286046999.1,N
1582885335.2,286046998.3,N
1582885355.0,286046998.5,N
1582885355.9,286046998.5,N
1582885375.8,286046997.0,Y
1582885395.6,286046997.0,P
1582885415.4,286046998.6,N
1582885435.3,286047002.6,N
1582885455.1,286047000.7,N
1582885475.9,286046996.7,N
1582885495.7,286046995.7,N
1582885515.5,286046994.9,N
1582885535.4,286046997.0,N
1582885555.2,286046998.5,N
1582885575.0,286047000.5,N
1582885575.9,286047000.5,N
1582885595.8,286047001.2,N
1582885615.6,286046998.4,N
1582885635.5,286047000.9,N
1582885655.3,286046998.4,N
1582885675.2,286047000.7,N
1582885695.9,286047001.6,N
1582885715.7,286047001.1,N
1582885735.6,286046998.1,N
1582885755.4,286046998.5,N
1582885775.2,286047001.0,N
1582885795.1,286047000.2,N
1582885796.0,286047000.2,N
1582885815.8,286047001.2,N
1582885835.7,286046999.6,N
1582885855.5,286046998.6,N
1582885875.3,286046999.9,N
1582885895.2,286047000.3,N
1582885915.0,286047000.1,N
1582885915.9,286047000.1,N
1582885935.8,286047001.3,N
1582885955.6,286047003.8,N
1582885975.4,286047001.4,N
1582885995.3,286047005.9,Y
1582886015.1,286047004.6,P
1582886035.8,286047004.8,N
1582886055.7,286047005.1,N
1582886075.5,286047005.9,N
1582886095.4,286047003.6,N
1582886115.2,286047005.2,N
1582886135.0,286047003.2,N
1582886135.9,286047003.2,N
1582886155.8,286047003.4,N
1582886175.6,286046999.9,N
1582886195.5,286046998.1,N
1582886215.3,286047002.6,N
1582886235.1,286047005.9,N
1582886255.9,286047005.0,N
1582886275.7,286047004.8,N
1582886295.5,286047003.9,N
1582886315.4,286047003.5,N
1582886335.2,286047005.8,N
1582886355.1,286047006.9,Y
1582886356.0,286047006.9,P
1582886375.8,286047002.4,N
1582886395.6,286047000.0,N
1582886415.5,286047002.6,N
1582886435.3,286046999.8,N
1582886455.2,286047003.8,N
1582886475.9,286047004.2,N
1582886495.7,286047000.2,N
1582886515.6,286046998.2,N
1582886535.4,286046998.6,N
1582886555.2,286046999.6,N
1582886575.1,286046998.9,N
1582886576.0,286046998.9,N
1582886595.8,286046997.4,N
1582886615.7,286046999.0,N
1582886635.5,286046999.7,N
1582886655.3,286047000.2,N
1582886675.2,286047000.8,N
1582886695.0,286046998.9,N
1582886695.9,286046998.9,N
1582886715.8,286046998.8,N
1582886735.6,286046999.2,N
1582886755.4,286046997.2,N
1582886775.3,286046994.9,N
1582886795.1,286046997.4,N
1582886815.8,286046997.2,N
1582886835.7,286046997.5,N
1582886855.5,286046993.9,N
1582886875.4,286046997.9,N
1582886895.2,286046997.4,N
1582886915.0,286046996.5,N
1582886915.9,286046996.5,N
1582886935.8,286047011.9,Y
1582886955.6,286047001.1,P
1582886975.5,286046999.9,N
1582886995.3,286046999.9,N
1582887015.1,286047002.5,Y
1582887035.9,286047000.1,P
1582887055.7,286047001.0,P
1582887075.5,286046998.5,P
1582887095.4,286046998.2,N
1582887115.2,286046999.9,N
1582887135.1,286047001.2,N
1582887136.0,286047001.2,N
1582887155.8,286046998.3,N
1582887175.6,286047000.5,N
1582887195.5,286047002.3,N
1582887215.3,286047000.7,N
1582887235.2,286047001.2,N
1582887255.0,286047001.1,N
1582887255.9,286047001.1,N
1582887275.7,286047003.4,N
1582887295.6,286047002.8,N
1582887315.4,286046998.3,N
1582887335.3,286046999.1,N
1582887355.1,286046999.0,N
1582887375.8,286046998.2,N
1582887395.7,286046998.3,N
1582887415.5,286046998.5,N
1582887435.4,286046998.4,N
1582887455.2,286047000.2,N
1582887475.0,286047000.4,N
1582887475.9,286047000.4,N
1582887495.8,286046999.8,N
1582887515.6,286047002.3,N
1582887535.5,286047000.4,N
1582887555.3,286047000.3,N
1582887575.1,286047001.9,N
1582887595.9,286047000.4,N
